Flag for Luxembourg Weather past 2 weeks in Differdange, Luxembourg

Now
41 °F

Quite cool.


Feels Like: 34 °F
Forecast: 42 / 51 °F
Wind: 13 mph from West

Location: Luxembourg Airport

Current Time: Oct 22, 2014 at 4:34:32 AM

Latest Report: Oct 22, 2014 at 3:50 AM


Visibility: N/A

Pressure: 30.01 "Hg

Humidity: 87%

Dew point: 37 °F

Location of DifferdangeLocation

Historic Weather in Differdange — Graph

°F

Differdange temperature yesterday

Maximum temperature yesterday: 54 °F (at 12:20 PM)
Minimum temperature yesterday: 43 °F (at 9:50 PM)
Average temperature yesterday: 49 °F

Past Weeks' High & Low Weather Summary

 TemperatureHumidityPressure
High70 °F (Oct 19, 2:20 PM)100% (Oct 7, 4:20 AM)30.15 "Hg (Oct 7, 4:20 AM)
Low41 °F (Oct 22, 3:20 AM)59% (Oct 15, 1:20 PM)29.59 "Hg (Oct 7, 7:20 AM)
Average55 °F91%29.88 "Hg
* Reported Oct 7 3:20 AM — Oct 22 3:20 AM, Differdange, Weather by CustomWeather, © 2014

Note: Actual official high and low records may vary slightly from our data, if they occured in-between our weather recording intervals... More about our weather records

Advertising

Differdange weather history for previous 24 hours

 ConditionsComfort  
Time TempWeatherWind HumidityBarometerVisibility
3:20 AM
Oct 22
41 °FQuite cool.13 mph81%30.01 "HgN/A
2:50 AM43 °FQuite cool.14 mph81%30.01 "HgN/A
2:20 AM43 °FQuite cool.10 mph81%29.98 "HgN/A
1:50 AM43 °FPartly cloudy.15 mph81%29.98 "HgN/A
1:20 AM43 °FPassing clouds.16 mph81%29.98 "HgN/A
12:50 AM43 °FPassing clouds.14 mph87%29.95 "HgN/A
12:20 AM43 °FPassing clouds.15 mph87%29.95 "HgN/A
11:50 PM
Oct 21
43 °FPassing clouds.16 mph87%29.92 "HgN/A
11:20 PM43 °FPassing clouds.13 mph87%29.92 "HgN/A
10:50 PM45 °FPassing clouds.14 mph81%29.89 "HgN/A
10:20 PM45 °FPassing clouds.14 mph81%29.89 "HgN/A
9:50 PM43 °FPassing clouds.16 mph87%29.86 "HgN/A
9:20 PM45 °FPassing clouds.17 mph81%29.83 "HgN/A
8:50 PM45 °FPassing clouds.10 mph81%29.83 "HgN/A
8:20 PM45 °FPassing clouds.12 mph76%29.80 "HgN/A
7:50 PM46 °FPassing clouds.18 mph76%29.80 "HgN/A
7:20 PM46 °FBroken clouds.20 mph76%29.77 "HgN/A
6:50 PM46 °FBroken clouds.18 mph76%29.74 "HgN/A
6:20 PM50 °FScattered clouds.16 mph82%29.71 "HgN/A
5:50 PM50 °FPartly sunny.16 mph82%29.68 "HgN/A
5:20 PM50 °FPartly sunny.16 mph82%29.65 "HgN/A
4:50 PM52 °FSprinkles. Broken clouds.28 mph88%29.65 "HgN/A
4:20 PM52 °FLots of rain. Fog.26 mph94%29.62 "Hg2 mi
3:50 PM54 °FSprinkles. Partly sunny.18 mph94%29.65 "HgN/A
3:20 PM54 °FPartly sunny.15 mph94%29.68 "HgN/A
2:50 PM54 °FPartly sunny.14 mph94%29.71 "HgN/A
2:20 PM52 °FLight rain. Fog.15 mph100%29.71 "Hg2 mi
1:50 PM52 °FLight rain. Fog.14 mph94%29.74 "Hg2 mi
1:20 PM52 °FLight rain. Partly sunny.14 mph88%29.77 "Hg4 mi
12:50 PM54 °FPartly sunny.16 mph77%29.80 "HgN/A
12:20 PM54 °FCool.20 mph77%29.80 "HgN/A
11:50 AM52 °FPartly sunny.14 mph88%29.83 "HgN/A
11:20 AM52 °FPartly sunny.14 mph88%29.83 "HgN/A
10:50 AM52 °FPartly sunny.14 mph88%29.86 "HgN/A
10:20 AM52 °FPartly sunny.17 mph88%29.86 "HgN/A
9:50 AM50 °FPartly sunny.14 mph94%29.89 "HgN/A
9:20 AM50 °FPartly sunny.13 mph94%29.86 "HgN/A
8:50 AM50 °FPassing clouds.10 mph94%29.89 "HgN/A
8:20 AM50 °FPassing clouds.8 mph94%29.89 "HgN/A
7:50 AM50 °FPartly cloudy.9 mph94%29.89 "Hg4 mi
7:20 AM50 °FPartly cloudy.7 mph94%29.92 "Hg4 mi
6:50 AM50 °FPassing clouds.7 mph94%29.92 "Hg4 mi
6:20 AM50 °FLow clouds.7 mph94%29.92 "Hg3 mi
5:50 AM50 °FLow clouds.7 mph100%29.92 "Hg3 mi
4:50 AM50 °FPassing clouds.3 mph100%29.95 "Hg4 mi
4:20 AM50 °FCool.8 mph100%29.95 "Hg4 mi
Weather by CustomWeather, © 2014

See weather overviewHow to use our weather pages